Tracking 31027 objects as of 19-Jul-2025
HD Live streaming from Space Station
objects crossing your sky now

BREEZE-M DEB (TANK)

Track BREEZE-M DEB (TANK) now!
10-day predictions


NORAD ID: 28395
Int'l Code: 2004-031C
Perigee: 284.3 km
Apogee: 14,606.6 km
Inclination: 49.5 °
Period: 269.4 minutes
Semi major axis: 13816 km
RCS: 6.5834 m2 (large)
Launch date: August 4, 2004
Source: Commonwealth of Independent States (former USSR) (CIS)
Launch site: TYURATAM MISSILE AND SPACE COMPLEX (TTMTR)

Note: This is SATELLITE DEBRIS
Your satellite tracking list
SL-12 R/B(2)
Track 1 satellite(s)




NASA's NSSDC Master Catalog

Two Line Element Set (TLE):
1 28395U 04031C   25198.72448334  .00009533  00000-0  11130-2 0  9993
2 28395  49.4815 355.1003 5183091 198.1790 132.8342  5.34574344386727
Source of the keplerian elements: AFSPC